星链-31680 (STARLINK-31680 )

导读 | 豆包AI

STARLINK-31680是美国太空探索技术公司SpaceX星链(Starlink)项目的低轨通信卫星,于2024年4月2日从美国空军西部试验靶场发射升空,国际编号为2024-062G,北美防空司令部编号59380。该卫星运行在近地点322.3公里、远地点323.5公里轨道,轨道倾角53.2度,属于星链星座组网卫星,旨在为全球提供高速宽带互联网服务。

基本信息
目录编号:
59380
目录名称:
STARLINK-31680
国际标识:
2024-062G
轨道中心:
EARTH
卫星名称:
星链-31680
卫星全名:
星链-31680 (STARLINK-31680 )
卫星状态:
在轨 (已飞行759 天)
发射日期:
2024-04-02 UTC
国别 :
美国 (US)
星等 :
--
轨道信息
数据来源 国际轨道数据
星历时间: 2026-04-30T10:32:56+0800
22小时前
查看轨道信息
半长轴: 6853.369km
偏心率: 0.0001296
轨道倾角: 53.162°
近地点辐角 108.309°
升交点赤经 19.671°
平近点角 251.806°
近地点: 474.343km
远地点: 476.121km
周期: 94.106分钟
每日圈数: 15.301946
详细信息
固有亮度:
5
最大亮度:
0.3
卫星平台:
Starlink v2.0 mini
覆盖范围:
全球
运营商:
太空探索技术公司
运营商所在国:
美国
制造商(研发单位):
太空探索技术公司
制造商所在国:
美国
使用方式:
暂无
卫星简介
星链(Starlink)计划是由太空探索技术公司(SpaceX)提出的一个巨型低轨卫星互联网星座项目,计划在2019年至2024年间在太空搭建由约1.2万颗卫星组成的“星链”网络,其中1584颗将部署在地球上空550千米处的近地轨道,并从2020年开始工作。该卫星仍在工作。
2D轨道图
3D轨道图
轨道高度分析图
轨道倾角分析图
轨道综合分析图
查看轨道综合分析图